Weather History for Kaiser, MO

Change the Weather History Date:

Wednesday, May 29, 2013

  Actual Average Record
Temperature  
Mean Temperature 75 °F -  
Max Temperature 84 °F 75 °F 89 °F (2000)
Min Temperature 66 °F 55 °F 48 °F (1997)
Cooling Degree Days 10    
Growing Degree Days 25 (Base 50)    
Moisture  
Dew Point 63 °F    
Average Humidity 67    
Maximum Humidity 88    
Minimum Humidity 48    
Precipitation  
Precipitation 0.00 in - - ()
Sea Level Pressure  
Sea Level Pressure 29.88 in    
Wind  
Wind Speed 8 mph (South)    
Max Wind Speed 20 mph    
Max Gust Speed 25 mph    
Averages and records for this station are not official NWS values.
T = Trace of Precipitation, MM = Missing Value Source: NWS Daily Summary

Daily Weather History Graph

Daily Weather History Graph

Search for Another Location

Airport:

Trip Planner

Search our weather history database for the weather conditions in past years. The results will help you decide how hot, cold, wet, or windy it might be!

Date:

Astronomy

May. 29, 2013 Rise Set
Actual Time 5:50 AM CDT 8:25 PM CDT
Civil Twilight 5:19 AM CDT 8:56 PM CDT
Nautical Twilight 4:41 AM CDT 9:34 PM CDT
Astronomical Twilight 3:58 AM CDT 10:17 PM CDT
Moon No Moon Rise 10:47 AM CDT (5/29)
Length of Visible Light 15h 36m
Length of Day
14h 35m
Waning Gibbous, 73% of the Moon is Illuminated
May 29
Waning Gibbous
May 31
Last Quarter
Jun 8
New
Jun 16
First Quarter
Jun 23
Full

Hourly Weather History & Observations

Time (CDT) Temp. Heat Index Dew Point Humidity Pressure Visibility Wind Dir Wind Speed Gust Speed Precip Events Conditions
12:15 AM 71.6 °F - 62.6 °F 73% 29.90 in - South 5.8 mph - N/A   Clear
12:35 AM 69.8 °F - 62.6 °F 78% 29.90 in - South 5.8 mph - N/A   Clear
12:55 AM 69.8 °F - 62.6 °F 78% 29.90 in - South 6.9 mph - N/A   Clear
1:15 AM 69.8 °F - 62.6 °F 78% 29.90 in - South 5.8 mph - N/A   Clear
1:35 AM 69.8 °F - 62.6 °F 78% 29.90 in - South 5.8 mph - N/A   Clear
1:55 AM 71.6 °F - 62.6 °F 73% 29.89 in - SSE 5.8 mph - N/A   Clear
2:15 AM 69.8 °F - 62.6 °F 78% 29.90 in - SSE 3.5 mph - N/A   Partly Cloudy
2:35 AM 69.8 °F - 62.6 °F 78% 29.89 in - SSE 4.6 mph - N/A   Clear
2:55 AM 69.8 °F - 62.6 °F 78% 29.90 in - South 3.5 mph - N/A   Scattered Clouds
3:15 AM 69.8 °F - 62.6 °F 78% 29.91 in - South 4.6 mph - N/A   Partly Cloudy
3:35 AM 69.8 °F - 62.6 °F 78% 29.91 in - SSE 3.5 mph - N/A   Clear
3:55 AM 69.8 °F - 62.6 °F 78% 29.91 in - Calm Calm - N/A   Scattered Clouds
4:15 AM 68.0 °F - 62.6 °F 83% 29.91 in - SE 3.5 mph - N/A   Overcast
4:35 AM 68.0 °F - 62.6 °F 83% 29.91 in - SE 3.5 mph - N/A   Overcast
4:55 AM 68.0 °F - 62.6 °F 83% 29.91 in - Calm Calm - N/A   Mostly Cloudy
5:15 AM 68.0 °F - 62.6 °F 83% 29.91 in - Calm Calm - N/A   Scattered Clouds
5:35 AM 68.0 °F - 62.6 °F 83% 29.91 in - SE 3.5 mph - N/A   Partly Cloudy
5:55 AM 66.2 °F - 62.6 °F 88% 29.91 in - SSE 4.6 mph - N/A   Mostly Cloudy
6:15 AM 66.2 °F - 62.6 °F 88% 29.91 in - SE 4.6 mph - N/A   Unknown
6:35 AM 66.2 °F - 62.6 °F 88% 29.91 in - South 5.8 mph - N/A   Unknown
6:55 AM 68.0 °F - 62.6 °F 83% 29.91 in - South 9.2 mph - N/A   Partly Cloudy
7:15 AM 69.8 °F - 62.6 °F 78% 29.91 in - South 10.4 mph 17.3 mph N/A   Mostly Cloudy
7:35 AM 69.8 °F - 62.6 °F 78% 29.92 in - South 11.5 mph 16.1 mph N/A   Mostly Cloudy
7:55 AM 71.6 °F - 62.6 °F 73% 29.92 in - South 9.2 mph - N/A   Mostly Cloudy
8:15 AM 71.6 °F - 62.6 °F 73% 29.92 in - South 11.5 mph - N/A   Scattered Clouds
8:35 AM 71.6 °F - 64.4 °F 78% 29.92 in - South 12.7 mph 18.4 mph N/A   Partly Cloudy
8:55 AM 73.4 °F - 64.4 °F 73% 29.92 in - SSE 9.2 mph 16.1 mph N/A   Clear
9:15 AM 73.4 °F - 64.4 °F 73% 29.92 in - South 11.5 mph 19.6 mph N/A   Clear
9:35 AM 75.2 °F - 64.4 °F 69% 29.91 in - South 9.2 mph - N/A   Clear
9:55 AM 77.0 °F - 66.2 °F 69% 29.91 in - South 17.3 mph 21.9 mph N/A   Clear
10:15 AM 77.0 °F - 66.2 °F 69% 29.91 in - South 12.7 mph 20.7 mph N/A   Clear
10:35 AM 78.8 °F - 64.4 °F 61% 29.90 in - South 12.7 mph 21.9 mph N/A   Partly Cloudy
10:55 AM 78.8 °F - 66.2 °F 65% 29.90 in - South 12.7 mph 18.4 mph N/A   Partly Cloudy
11:15 AM 80.6 °F 82.7 °F 66.2 °F 61% 29.90 in - South 16.1 mph 24.2 mph N/A   Scattered Clouds
11:35 AM 80.6 °F 82.3 °F 64.4 °F 58% 29.91 in - South 17.3 mph 24.2 mph N/A   Mostly Cloudy
11:55 AM 80.6 °F 82.3 °F 64.4 °F 58% 29.90 in - SSW 12.7 mph 21.9 mph N/A   Mostly Cloudy
12:15 PM 80.6 °F 82.7 °F 66.2 °F 61% 29.90 in - South 13.8 mph - N/A   Scattered Clouds
12:35 PM 80.6 °F 82.3 °F 64.4 °F 58% 29.89 in - South 12.7 mph 20.7 mph N/A   Mostly Cloudy
12:55 PM 80.6 °F 82.3 °F 64.4 °F 58% 29.89 in - South 11.5 mph 17.3 mph N/A   Overcast
1:15 PM 80.6 °F 82.3 °F 64.4 °F 58% 29.88 in - South 15.0 mph 21.9 mph N/A   Overcast
1:35 PM 82.4 °F 83.9 °F 64.4 °F 54% 29.88 in - South 10.4 mph 18.4 mph N/A   Overcast
1:55 PM 80.6 °F 82.3 °F 64.4 °F 58% 29.89 in - South 12.7 mph 21.9 mph N/A   Overcast
2:15 PM 82.4 °F 83.4 °F 62.6 °F 51% 29.88 in - South 13.8 mph 24.2 mph N/A   Overcast
2:35 PM 82.4 °F 83.4 °F 62.6 °F 51% 29.87 in - South 11.5 mph 23.0 mph N/A   Scattered Clouds
2:55 PM 82.4 °F 83.9 °F 64.4 °F 54% 29.87 in - South 18.4 mph 24.2 mph N/A   Partly Cloudy
3:15 PM 82.4 °F 83.4 °F 62.6 °F 51% 29.86 in - South 11.5 mph 24.2 mph N/A   Scattered Clouds
3:35 PM 82.4 °F 83.4 °F 62.6 °F 51% 29.86 in - SSW 12.7 mph 25.3 mph N/A   Mostly Cloudy
3:55 PM 84.2 °F 85.0 °F 62.6 °F 48% 29.86 in - South 19.6 mph 25.3 mph N/A   Scattered Clouds
4:15 PM 82.4 °F 83.4 °F 62.6 °F 51% 29.85 in - South 13.8 mph 25.3 mph N/A   Scattered Clouds
4:35 PM 82.4 °F 83.4 °F 62.6 °F 51% 29.84 in - South 12.7 mph 19.6 mph N/A   Partly Cloudy
4:55 PM 82.4 °F 83.9 °F 64.4 °F 54% 29.84 in - South 10.4 mph 17.3 mph N/A   Clear
5:15 PM 82.4 °F 83.4 °F 62.6 °F 51% 29.83 in - South 12.7 mph 19.6 mph N/A   Scattered Clouds
5:35 PM 82.4 °F 83.9 °F 64.4 °F 54% 29.82 in - South 11.5 mph 18.4 mph N/A   Partly Cloudy
5:55 PM 80.6 °F 81.8 °F 62.6 °F 54% 29.82 in - South 8.1 mph - N/A   Partly Cloudy
6:15 PM 80.6 °F 82.3 °F 64.4 °F 58% 29.81 in - South 9.2 mph - N/A   Partly Cloudy
6:35 PM 80.6 °F 81.8 °F 62.6 °F 54% 29.80 in - South 13.8 mph 20.7 mph N/A   Clear
6:55 PM 78.8 °F - 62.6 °F 57% 29.79 in - South 13.8 mph 21.9 mph N/A   Clear
7:15 PM 78.8 °F - 62.6 °F 57% 29.78 in - South 13.8 mph 20.7 mph N/A   Clear
7:35 PM 78.8 °F - 62.6 °F 57% 29.78 in - SSE 10.4 mph 21.9 mph N/A   Clear
7:55 PM 78.8 °F - 62.6 °F 57% 29.78 in - SSE 11.5 mph 18.4 mph N/A   Clear
8:15 PM 77.0 °F - 60.8 °F 57% 29.79 in - South 10.4 mph 19.6 mph N/A   Clear
8:35 PM 75.2 °F - 60.8 °F 61% 29.80 in - South 5.8 mph - N/A   Clear
8:55 PM 75.2 °F - 60.8 °F 61% 29.82 in - South 8.1 mph - N/A   Clear
9:15 PM 75.2 °F - 60.8 °F 61% 29.83 in - South 6.9 mph - N/A   Clear
9:35 PM 73.4 °F - 60.8 °F 65% 29.84 in - South 5.8 mph - N/A   Clear
9:55 PM 73.4 °F - 60.8 °F 65% 29.86 in - South 4.6 mph - N/A   Clear
10:15 PM 73.4 °F - 60.8 °F 65% 29.86 in - South 4.6 mph - N/A   Clear
10:35 PM 73.4 °F - 60.8 °F 65% 29.86 in - South 5.8 mph - N/A   Clear
10:55 PM 71.6 °F - 60.8 °F 69% 29.86 in - SSE 4.6 mph - N/A   Clear
11:15 PM 71.6 °F - 60.8 °F 69% 29.86 in - SSE 3.5 mph - N/A   Clear
11:35 PM 69.8 °F - 60.8 °F 73% 29.85 in - SE 3.5 mph - N/A   Clear
11:55 PM 69.8 °F - 60.8 °F 73% 29.85 in - SSE 5.8 mph - N/A   Clear